| time (UTC) | temp F | wind direction | speed MPH | gust MPH | rain 1hr in | rain 24hr in | rain mn in | humidity % | barometer mb |
| 20260509180819 | 91 | 128 | 6.0 | 10.0 | 0.00 | 0.00 | 0.00 | 71 | 1013.9 |
| 20260509180351 | 90 | 133 | 5.0 | 11.0 | 0.00 | 0.00 | 0.00 | 72 | 1014.0 |
| 20260509175823 | 90 | 146 | 6.0 | 11.0 | 0.00 | 0.00 | 0.00 | 71 | 1013.9 |
| 20260509175337 | 90 | 127 | 6.0 | 10.0 | 0.00 | 0.00 | 0.00 | 71 | 1013.9 |
| 20260509174827 | 91 | 147 | 6.0 | 9.0 | 0.00 | 0.00 | 0.00 | 71 | 1014.0 |
| 20260509174321 | 91 | 134 | 5.0 | 9.0 | 0.00 | 0.00 | 0.00 | 70 | 1014.1 |
| 20260509173835 | 92 | 101 | 3.0 | 7.0 | 0.00 | 0.00 | 0.00 | 66 | 1014.2 |
| 20260509173347 | 92 | 196 | 3.0 | 7.0 | 0.00 | 0.00 | 0.00 | 69 | 1014.3 |
| 20260509172820 | 92 | 182 | 1.0 | 3.0 | 0.00 | 0.00 | 0.00 | 66 | 1014.3 |
| 20260509172331 | 92 | 150 | 0.0 | 0.0 | 0.00 | 0.00 | 0.00 | 70 | 1014.3 |
| 20260509171823 | 92 | 276 | 0.0 | 0.0 | 0.00 | 0.00 | 0.00 | 68 | 1014.4 |
| 20260509171337 | 92 | 139 | 0.0 | 1.0 | 0.00 | 0.00 | 0.00 | 69 | 1014.4 |
| 20260509170829 | 91 | 32 | 0.0 | 5.0 | 0.00 | 0.00 | 0.00 | 71 | 1014.4 |
| 20260509170322 | 90 | 115 | 0.0 | 5.0 | 0.00 | 0.00 | 0.00 | 69 | 1014.5 |
| 20260509165833 | 91 | 120 | 0.0 | 1.0 | 0.00 | 0.00 | 0.00 | 69 | 1014.6 |
| 20260509165325 | 90 | 145 | 0.0 | 2.0 | 0.00 | 0.00 | 0.00 | 68 | 1014.7 |
| 20260509164827 | 90 | 25 | 0.0 | 2.0 | 0.00 | 0.00 | 0.00 | 70 | 1014.8 |
| 20260509164349 | 90 | 183 | 0.0 | 2.0 | 0.00 | 0.00 | 0.00 | 69 | 1014.7 |
| 20260509163352 | 91 | 137 | 0.0 | 4.0 | 0.00 | 0.00 | 0.00 | 68 | 1014.9 |
| 20260509162823 | 91 | 139 | 1.0 | 3.0 | 0.00 | 0.00 | 0.00 | 69 | 1014.9 |
| 20260509162345 | 91 | 114 | 0.0 | 4.0 | 0.00 | 0.00 | 0.00 | 69 | 1014.9 |
| 20260509161828 | 92 | 121 | 1.0 | 3.0 | 0.00 | 0.00 | 0.00 | 66 | 1015.0 |
| 20260509161342 | 93 | 83 | 1.0 | 4.0 | 0.00 | 0.00 | 0.00 | 67 | 1015.1 |
| 20260509160824 | 93 | 149 | 1.0 | 4.0 | 0.00 | 0.00 | 0.00 | 66 | 1015.2 |
| 20260509160329 | 92 | 136 | 1.0 | 4.0 | 0.00 | 0.00 | 0.00 | 68 | 1015.1 |
| 20260509155822 | 92 | 34 | 1.0 | 4.0 | 0.00 | 0.00 | 0.00 | 69 | 1015.2 |
| 20260509155336 | 91 | 144 | 1.0 | 4.0 | 0.00 | 0.00 | 0.00 | 70 | 1015.2 |
| 20260509154828 | 91 | 322 | 1.0 | 3.0 | 0.00 | 0.00 | 0.00 | 69 | 1015.3 |
| 20260509154320 | 92 | 274 | 1.0 | 4.0 | 0.00 | 0.00 | 0.00 | 68 | 1015.3 |
| 20260509153831 | 92 | 293 | 1.0 | 5.0 | 0.00 | 0.00 | 0.00 | 68 | 1015.3 |
| 20260509153323 | 91 | 202 | 2.0 | 5.0 | 0.00 | 0.00 | 0.00 | 69 | 1015.4 |
| 20260509152835 | 91 | 105 | 1.0 | 5.0 | 0.00 | 0.00 | 0.00 | 69 | 1015.4 |
| 20260509152347 | 91 | 144 | 1.0 | 5.0 | 0.00 | 0.00 | 0.00 | 69 | 1015.4 |
| 20260509151831 | 91 | 138 | 1.0 | 4.0 | 0.00 | 0.00 | 0.00 | 68 | 1015.4 |
| 20260509151341 | 92 | 172 | 1.0 | 5.0 | 0.00 | 0.00 | 0.00 | 68 | 1015.3 |
| 20260509150822 | 92 | 134 | 1.0 | 4.0 | 0.00 | 0.00 | 0.00 | 67 | 1015.4 |
| 20260509150340 | 92 | 316 | 2.0 | 6.0 | 0.00 | 0.00 | 0.00 | 68 | 1015.4 |
| 20260509145903 | 91 | 141 | 3.0 | 6.0 | 0.00 | 0.00 | 0.00 | 68 | 1015.4 |
| 20260509145322 | 91 | 125 | 0.0 | 4.0 | 0.00 | 0.00 | 0.00 | 70 | 1015.3 |
| 20260509144834 | 91 | 122 | 0.0 | 3.0 | 0.00 | 0.00 | 0.00 | 70 | 1015.2 |
| 20260509144325 | 90 | 101 | 0.0 | 3.0 | 0.00 | 0.00 | 0.00 | 71 | 1015.2 |
| 20260509143822 | 90 | 131 | 1.0 | 5.0 | 0.00 | 0.00 | 0.00 | 71 | 1015.2 |
| 20260509143339 | 89 | 153 | 2.0 | 7.0 | 0.00 | 0.00 | 0.00 | 72 | 1015.1 |
| 20260509142821 | 88 | 124 | 3.0 | 7.0 | 0.00 | 0.00 | 0.00 | 74 | 1015.2 |
| 20260509142329 | 88 | 132 | 3.0 | 6.0 | 0.00 | 0.00 | 0.00 | 73 | 1015.1 |
| 20260509141836 | 88 | 127 | 2.0 | 5.0 | 0.00 | 0.00 | 0.00 | 74 | 1015.2 |
| 20260509141350 | 88 | 108 | 0.0 | 5.0 | 0.00 | 0.00 | 0.00 | 75 | 1015.1 |
| 20260509140821 | 87 | 148 | 3.0 | 5.0 | 0.00 | 0.00 | 0.00 | 76 | 1015.1 |
| 20260509140331 | 88 | 154 | 3.0 | 6.0 | 0.00 | 0.00 | 0.00 | 75 | 1015.0 |
| 20260509135830 | 88 | 149 | 2.0 | 7.0 | 0.00 | 0.00 | 0.00 | 76 | 1014.9 |
| 20260509135324 | 88 | 148 | 2.0 | 6.0 | 0.00 | 0.00 | 0.00 | 76 | 1014.9 |
| 20260509134822 | 88 | 203 | 2.0 | 5.0 | 0.00 | 0.00 | 0.00 | 77 | 1014.7 |
| 20260509134333 | 87 | 179 | 2.0 | 5.0 | 0.00 | 0.00 | 0.00 | 78 | 1014.8 |
| 20260509133822 | 87 | 159 | 1.0 | 7.0 | 0.00 | 0.00 | 0.00 | 79 | 1014.7 |
| 20260509133355 | 86 | 131 | 2.0 | 7.0 | 0.00 | 0.00 | 0.00 | 79 | 1014.8 |
| 20260509132853 | 86 | 84 | 2.0 | 7.0 | 0.00 | 0.00 | 0.00 | 79 | 1014.7 |
| 20260509132343 | 85 | 146 | 4.0 | 8.0 | 0.00 | 0.00 | 0.00 | 79 | 1014.9 |
| 20260509131825 | 86 | 128 | 3.0 | 5.0 | 0.00 | 0.00 | 0.00 | 79 | 1014.9 |
| 20260509131333 | 86 | 177 | 1.0 | 6.0 | 0.00 | 0.00 | 0.00 | 80 | 1014.9 |
| 20260509130836 | 85 | 122 | 2.0 | 6.0 | 0.00 | 0.00 | 0.00 | 80 | 1014.9 |
| 20260509130346 | 84 | 115 | 2.0 | 5.0 | 0.00 | 0.00 | 0.00 | 81 | 1014.8 |
| 20260509125834 | 83 | 169 | 1.0 | 6.0 | 0.00 | 0.00 | 0.00 | 82 | 1014.8 |
| 20260509125343 | 83 | 152 | 2.0 | 6.0 | 0.00 | 0.00 | 0.00 | 82 | 1014.8 |
| 20260509124841 | 83 | 136 | 0.0 | 4.0 | 0.00 | 0.00 | 0.00 | 83 | 1014.8 |
| 20260509124330 | 83 | 108 | 1.0 | 4.0 | 0.00 | 0.00 | 0.00 | 83 | 1014.7 |
| 20260509123840 | 82 | 150 | 1.0 | 2.0 | 0.00 | 0.00 | 0.00 | 84 | 1014.7 |
| 20260509123332 | 82 | 298 | 0.0 | 2.0 | 0.00 | 0.00 | 0.00 | 84 | 1014.7 |
| 20260509122824 | 82 | 135 | 0.0 | 2.0 | 0.00 | 0.00 | 0.00 | 85 | 1014.7 |
| 20260509122334 | 82 | 131 | 1.0 | 2.0 | 0.00 | 0.00 | 0.00 | 85 | 1014.8 |
| 20260509121826 | 81 | 150 | 0.0 | 2.0 | 0.00 | 0.00 | 0.00 | 86 | 1014.7 |
| 20260509121323 | 81 | 159 | 0.0 | 2.0 | 0.00 | 0.00 | 0.00 | 88 | 1014.8 |
| 20260509120834 | 80 | 208 | 0.0 | 0.0 | 0.00 | 0.00 | 0.00 | 90 | 1014.8 |
| 20260509120323 | 79 | 209 | 0.0 | 0.0 | 0.00 | 0.00 | 0.00 | 91 | 1014.8 |
| 20260509115834 | 78 | 208 | 0.0 | 0.0 | 0.00 | 0.00 | 0.00 | 91 | 1014.8 |
| 20260509115326 | 78 | 289 | 0.0 | 0.0 | 0.00 | 0.00 | 0.00 | 92 | 1014.8 |
| 20260509114848 | 78 | 289 | 0.0 | 0.0 | 0.00 | 0.00 | 0.00 | 92 | 1014.8 |
| 20260509114321 | 78 | 289 | 0.0 | 0.0 | 0.00 | 0.00 | 0.00 | 92 | 1014.9 |
| 20260509113844 | 78 | 289 | 0.0 | 0.0 | 0.00 | 0.00 | 0.00 | 92 | 1014.9 |
| 20260509113339 | 77 | 289 | 0.0 | 0.0 | 0.00 | 0.00 | 0.00 | 93 | 1014.8 |
| 20260509112829 | 77 | 289 | 0.0 | 0.0 | 0.00 | 0.00 | 0.00 | 93 | 1014.7 |
| 20260509112323 | 76 | 289 | 0.0 | 0.0 | 0.00 | 0.00 | 0.00 | 93 | 1014.7 |
| 20260509111909 | 76 | 289 | 0.0 | 0.0 | 0.00 | 0.00 | 0.00 | 93 | 1014.7 |
| 20260509111321 | 75 | 289 | 0.0 | 0.0 | 0.00 | 0.00 | 0.00 | 93 | 1014.7 |
| 20260509110823 | 75 | 289 | 0.0 | 0.0 | 0.00 | 0.00 | 0.00 | 92 | 1014.6 |
| 20260509110337 | 75 | 289 | 0.0 | 0.0 | 0.00 | 0.00 | 0.00 | 92 | 1014.7 |
| 20260509105829 | 75 | 289 | 0.0 | 0.0 | 0.00 | 0.00 | 0.00 | 92 | 1014.7 |
| 20260509105324 | 75 | 289 | 0.0 | 0.0 | 0.00 | 0.00 | 0.00 | 92 | 1014.6 |
| 20260509104846 | 75 | 289 | 0.0 | 0.0 | 0.00 | 0.00 | 0.00 | 92 | 1014.6 |
| 20260509104333 | 75 | 289 | 0.0 | 0.0 | 0.00 | 0.00 | 0.00 | 92 | 1014.6 |
| 20260509103843 | 75 | 289 | 0.0 | 0.0 | 0.00 | 0.00 | 0.00 | 92 | 1014.5 |
| 20260509103333 | 75 | 289 | 0.0 | 0.0 | 0.00 | 0.00 | 0.00 | 92 | 1014.6 |
| 20260509102825 | 75 | 289 | 0.0 | 0.0 | 0.00 | 0.00 | 0.00 | 92 | 1014.5 |
| 20260509102338 | 75 | 289 | 0.0 | 0.0 | 0.00 | 0.00 | 0.00 | 92 | 1014.4 |
| 20260509101822 | 75 | 289 | 0.0 | 0.0 | 0.00 | 0.00 | 0.00 | 92 | 1014.4 |
| 20260509101332 | 75 | 289 | 0.0 | 0.0 | 0.00 | 0.00 | 0.00 | 92 | 1014.4 |
| 20260509100840 | 76 | 289 | 0.0 | 0.0 | 0.00 | 0.00 | 0.00 | 92 | 1014.3 |
| 20260509100347 | 76 | 289 | 0.0 | 0.0 | 0.00 | 0.00 | 0.00 | 92 | 1014.5 |
| 20260509095821 | 76 | 289 | 0.0 | 0.0 | 0.00 | 0.00 | 0.00 | 92 | 1014.4 |
| 20260509095344 | 76 | 289 | 0.0 | 0.0 | 0.00 | 0.00 | 0.00 | 92 | 1014.5 |
| 20260509094837 | 76 | 289 | 0.0 | 0.0 | 0.00 | 0.00 | 0.00 | 92 | 1014.4 |
| 20260509094326 | 76 | 289 | 0.0 | 0.0 | 0.00 | 0.00 | 0.00 | 92 | 1014.3 |
| 20260509093841 | 76 | 289 | 0.0 | 0.0 | 0.00 | 0.00 | 0.00 | 92 | 1014.4 |
| 20260509093406 | 76 | 289 | 0.0 | 1.0 | 0.00 | 0.00 | 0.00 | 92 | 1014.3 |
| 20260509092821 | 76 | 289 | 0.0 | 1.0 | 0.00 | 0.00 | 0.00 | 92 | 1014.1 |
| 20260509092407 | 76 | 289 | 0.0 | 0.0 | 0.00 | 0.00 | 0.00 | 92 | 1014.1 |
| 20260509091827 | 76 | 289 | 0.0 | 0.0 | 0.00 | 0.00 | 0.00 | 92 | 1014.3 |
| 20260509091323 | 76 | 289 | 0.0 | 0.0 | 0.00 | 0.00 | 0.00 | 92 | 1014.2 |
| 20260509090837 | 76 | 289 | 0.0 | 0.0 | 0.00 | 0.00 | 0.00 | 92 | 1014.3 |
| 20260509090350 | 76 | 289 | 0.0 | 0.0 | 0.00 | 0.00 | 0.00 | 92 | 1014.2 |
| 20260509085841 | 76 | 289 | 0.0 | 0.0 | 0.00 | 0.00 | 0.00 | 92 | 1014.1 |
| 20260509085330 | 76 | 289 | 0.0 | 0.0 | 0.00 | 0.00 | 0.00 | 92 | 1014.2 |
| 20260509084843 | 76 | 289 | 0.0 | 0.0 | 0.00 | 0.00 | 0.00 | 92 | 1014.1 |
| 20260509084345 | 76 | 289 | 0.0 | 0.0 | 0.00 | 0.00 | 0.00 | 92 | 1014.1 |
| 20260509083835 | 77 | 289 | 0.0 | 0.0 | 0.00 | 0.00 | 0.00 | 92 | 1014.0 |
| 20260509083320 | 77 | 289 | 0.0 | 0.0 | 0.00 | 0.00 | 0.00 | 92 | 1014.1 |
| 20260509082831 | 77 | 289 | 0.0 | 0.0 | 0.00 | 0.00 | 0.00 | 91 | 1014.0 |
| 20260509082323 | 77 | 289 | 0.0 | 0.0 | 0.00 | 0.00 | 0.00 | 91 | 1014.1 |
| 20260509081835 | 77 | 289 | 0.0 | 0.0 | 0.00 | 0.00 | 0.00 | 91 | 1014.0 |
| 20260509081331 | 77 | 289 | 0.0 | 0.0 | 0.00 | 0.00 | 0.00 | 91 | 1014.0 |
| 20260509080826 | 77 | 289 | 0.0 | 0.0 | 0.00 | 0.00 | 0.00 | 91 | 1014.1 |
| 20260509080335 | 77 | 289 | 0.0 | 0.0 | 0.00 | 0.00 | 0.00 | 91 | 1014.0 |
| 20260509075829 | 77 | 289 | 0.0 | 0.0 | 0.00 | 0.00 | 0.00 | 91 | 1014.0 |
| 20260509075322 | 77 | 289 | 0.0 | 2.0 | 0.00 | 0.00 | 0.00 | 91 | 1014.0 |
| 20260509074835 | 77 | 289 | 0.0 | 2.0 | 0.00 | 0.00 | 0.00 | 91 | 1014.1 |
| 20260509074329 | 77 | 199 | 0.0 | 0.0 | 0.00 | 0.00 | 0.00 | 91 | 1014.1 |
| 20260509073823 | 77 | 149 | 0.0 | 0.0 | 0.00 | 0.00 | 0.00 | 91 | 1014.2 |
| 20260509073331 | 77 | 149 | 0.0 | 0.0 | 0.00 | 0.00 | 0.00 | 91 | 1014.1 |
| 20260509072824 | 77 | 149 | 0.0 | 0.0 | 0.00 | 0.00 | 0.00 | 91 | 1014.1 |
| 20260509072359 | 77 | 149 | 0.0 | 0.0 | 0.00 | 0.00 | 0.00 | 91 | 1014.0 |
| 20260509071905 | 77 | 149 | 0.0 | 0.0 | 0.00 | 0.00 | 0.00 | 91 | 1014.1 |
| 20260509071355 | 77 | 149 | 0.0 | 0.0 | 0.00 | 0.00 | 0.00 | 91 | 1014.2 |
| 20260509070828 | 77 | 149 | 0.0 | 0.0 | 0.00 | 0.00 | 0.00 | 90 | 1014.1 |
| 20260509070323 | 77 | 149 | 0.0 | 0.0 | 0.00 | 0.00 | 0.00 | 90 | 1014.2 |
| 20260509065845 | 77 | 149 | 0.0 | 0.0 | 0.00 | 0.00 | 0.00 | 90 | 1014.2 |
| 20260509065335 | 77 | 149 | 0.0 | 0.0 | 0.00 | 0.00 | 0.00 | 90 | 1014.2 |
| 20260509064835 | 77 | 149 | 0.0 | 0.0 | 0.00 | 0.00 | 0.00 | 90 | 1014.3 |
| 20260509064327 | 77 | 149 | 0.0 | 0.0 | 0.00 | 0.00 | 0.00 | 90 | 1014.4 |
| 20260509063826 | 77 | 149 | 0.0 | 0.0 | 0.00 | 0.00 | 0.00 | 89 | 1014.3 |
| 20260509063347 | 78 | 149 | 0.0 | 0.0 | 0.00 | 0.00 | 0.00 | 90 | 1014.3 |
| 20260509062839 | 78 | 149 | 0.0 | 0.0 | 0.00 | 0.00 | 0.00 | 89 | 1014.3 |
| 20260509062335 | 78 | 149 | 0.0 | 0.0 | 0.00 | 0.00 | 0.00 | 90 | 1014.3 |
| 20260509061824 | 78 | 149 | 0.0 | 0.0 | 0.00 | 0.00 | 0.00 | 90 | 1014.4 |
| 20260509061339 | 78 | 149 | 0.0 | 1.0 | 0.00 | 0.00 | 0.00 | 90 | 1014.4 |
| 20260509060830 | 78 | 149 | 0.0 | 1.0 | 0.00 | 0.00 | 0.00 | 90 | 1014.4 |
| 20260509060322 | 78 | 127 | 0.0 | 0.0 | 0.00 | 0.00 | 0.00 | 90 | 1014.4 |
| 20260509055832 | 78 | 127 | 0.0 | 0.0 | 0.00 | 0.00 | 0.00 | 90 | 1014.4 |
| 20260509055324 | 78 | 127 | 0.0 | 0.0 | 0.00 | 0.00 | 0.00 | 90 | 1014.4 |
| 20260509054848 | 78 | 127 | 0.0 | 0.0 | 0.00 | 0.00 | 0.00 | 90 | 1014.5 |
| 20260509054320 | 78 | 127 | 0.0 | 1.0 | 0.00 | 0.00 | 0.00 | 90 | 1014.5 |
| 20260509053853 | 78 | 122 | 0.0 | 1.0 | 0.00 | 0.00 | 0.00 | 89 | 1014.6 |
| 20260509053320 | 78 | 122 | 0.0 | 1.0 | 0.00 | 0.00 | 0.00 | 89 | 1014.7 |
| 20260509052834 | 78 | 150 | 0.0 | 0.0 | 0.00 | 0.00 | 0.00 | 89 | 1014.6 |
| 20260509052326 | 78 | 150 | 0.0 | 0.0 | 0.00 | 0.00 | 0.00 | 89 | 1014.7 |
| 20260509051856 | 78 | 150 | 0.0 | 0.0 | 0.00 | 0.00 | 0.00 | 89 | 1014.8 |
| 20260509051340 | 78 | 150 | 0.0 | 2.0 | 0.00 | 0.00 | 0.00 | 89 | 1014.9 |
| 20260509050830 | 78 | 150 | 0.0 | 2.0 | 0.00 | 0.00 | 0.00 | 89 | 1014.9 |
| 20260509050325 | 78 | 128 | 0.0 | 1.0 | 0.00 | 0.00 | 0.00 | 89 | 1014.8 |
| 20260509045848 | 78 | 120 | 0.0 | 3.0 | 0.00 | 0.00 | 0.00 | 89 | 1014.9 |
| 20260509045334 | 79 | 110 | 1.0 | 3.0 | 0.00 | 0.00 | 0.00 | 89 | 1014.9 |
| 20260509044827 | 79 | 138 | 1.0 | 4.0 | 0.00 | 0.00 | 0.00 | 88 | 1014.9 |
| 20260509044335 | 79 | 131 | 2.0 | 3.0 | 0.00 | 0.00 | 0.00 | 88 | 1015.1 |
| 20260509043828 | 79 | 132 | 2.0 | 3.0 | 0.00 | 0.00 | 0.00 | 88 | 1015.1 |
| 20260509043323 | 79 | 105 | 1.0 | 4.0 | 0.00 | 0.00 | 0.00 | 88 | 1015.1 |
| 20260509042844 | 79 | 122 | 2.0 | 4.0 | 0.00 | 0.00 | 0.00 | 88 | 1015.1 |
| 20260509042337 | 79 | 126 | 2.0 | 3.0 | 0.00 | 0.00 | 0.00 | 88 | 1015.3 |
| 20260509041821 | 79 | 123 | 2.0 | 3.0 | 0.00 | 0.00 | 0.00 | 88 | 1015.3 |
| 20260509041332 | 79 | 117 | 0.0 | 2.0 | 0.00 | 0.00 | 0.00 | 88 | 1015.4 |
| 20260509040826 | 79 | 133 | 0.0 | 3.0 | 0.00 | 0.00 | 0.00 | 88 | 1015.3 |
| 20260509040347 | 79 | 143 | 0.0 | 3.0 | 0.00 | 0.00 | 0.00 | 87 | 1015.4 |
| 20260509035832 | 79 | 148 | 0.0 | 3.0 | 0.00 | 0.00 | 0.00 | 87 | 1015.3 |
| 20260509035323 | 79 | 150 | 0.0 | 2.0 | 0.00 | 0.00 | 0.00 | 87 | 1015.4 |
| 20260509034833 | 79 | 141 | 0.0 | 4.0 | 0.00 | 0.00 | 0.00 | 87 | 1015.4 |
| 20260509034327 | 79 | 131 | 1.0 | 3.0 | 0.00 | 0.00 | 0.00 | 87 | 1015.4 |
| 20260509033841 | 79 | 131 | 0.0 | 3.0 | 0.00 | 0.00 | 0.00 | 87 | 1015.4 |
| 20260509033343 | 79 | 151 | 1.0 | 4.0 | 0.00 | 0.00 | 0.00 | 87 | 1015.3 |
| 20260509032826 | 79 | 118 | 1.0 | 4.0 | 0.00 | 0.00 | 0.00 | 86 | 1015.4 |
| 20260509032334 | 79 | 123 | 0.0 | 3.0 | 0.00 | 0.00 | 0.00 | 86 | 1015.4 |
| 20260509031825 | 79 | 124 | 2.0 | 4.0 | 0.00 | 0.00 | 0.00 | 86 | 1015.4 |
| 20260509031346 | 79 | 120 | 2.0 | 4.0 | 0.00 | 0.00 | 0.00 | 86 | 1015.4 |
| 20260509030830 | 79 | 131 | 2.0 | 3.0 | 0.00 | 0.00 | 0.00 | 86 | 1015.4 |
| 20260509030345 | 79 | 122 | 2.0 | 3.0 | 0.00 | 0.00 | 0.00 | 86 | 1015.3 |
| 20260509025835 | 79 | 119 | 1.0 | 3.0 | 0.00 | 0.00 | 0.00 | 85 | 1015.4 |
| 20260509025330 | 79 | 134 | 2.0 | 3.0 | 0.00 | 0.00 | 0.00 | 85 | 1015.4 |
| 20260509024822 | 79 | 122 | 1.0 | 4.0 | 0.00 | 0.00 | 0.00 | 85 | 1015.4 |
| 20260509024336 | 80 | 108 | 2.0 | 5.0 | 0.00 | 0.00 | 0.00 | 85 | 1015.5 |
| 20260509023830 | 80 | 110 | 2.0 | 6.0 | 0.00 | 0.00 | 0.00 | 85 | 1015.4 |
| 20260509023325 | 80 | 124 | 3.0 | 6.0 | 0.00 | 0.00 | 0.00 | 85 | 1015.3 |
| 20260509022835 | 80 | 120 | 4.0 | 5.0 | 0.00 | 0.00 | 0.00 | 85 | 1015.4 |
| 20260509022329 | 80 | 127 | 2.0 | 5.0 | 0.00 | 0.00 | 0.00 | 85 | 1015.2 |
| 20260509021821 | 80 | 112 | 3.0 | 5.0 | 0.00 | 0.00 | 0.00 | 85 | 1015.2 |
| 20260509021345 | 80 | 122 | 2.0 | 5.0 | 0.00 | 0.00 | 0.00 | 85 | 1015.3 |
| 20260509020840 | 80 | 127 | 1.0 | 3.0 | 0.00 | 0.00 | 0.00 | 84 | 1015.2 |
| 20260509020350 | 80 | 126 | 1.0 | 3.0 | 0.00 | 0.00 | 0.00 | 85 | 1015.1 |
| 20260509015850 | 80 | 125 | 1.0 | 4.0 | 0.00 | 0.00 | 0.00 | 84 | 1015.1 |
| 20260509015343 | 80 | 122 | 3.0 | 4.0 | 0.00 | 0.00 | 0.00 | 84 | 1015.0 |
| 20260509014829 | 80 | 134 | 2.0 | 4.0 | 0.00 | 0.00 | 0.00 | 84 | 1014.9 |
| 20260509014322 | 80 | 135 | 1.0 | 6.0 | 0.00 | 0.00 | 0.00 | 84 | 1014.9 |
| 20260509013832 | 80 | 125 | 3.0 | 6.0 | 0.00 | 0.00 | 0.00 | 84 | 1014.7 |
| 20260509013406 | 80 | 75 | 3.0 | 6.0 | 0.00 | 0.00 | 0.00 | 84 | 1014.7 |
| 20260509012903 | 80 | 127 | 2.0 | 6.0 | 0.00 | 0.00 | 0.00 | 83 | 1014.7 |
| 20260509012336 | 80 | 169 | 3.0 | 5.0 | 0.00 | 0.00 | 0.00 | 83 | 1014.8 |
| 20260509011820 | 80 | 82 | 3.0 | 5.0 | 0.00 | 0.00 | 0.00 | 83 | 1014.8 |
| 20260509011330 | 80 | 141 | 1.0 | 5.0 | 0.00 | 0.00 | 0.00 | 83 | 1014.7 |
| 20260509010823 | 80 | 115 | 2.0 | 5.0 | 0.00 | 0.00 | 0.00 | 83 | 1014.5 |
| 20260509010326 | 80 | 78 | 3.0 | 5.0 | 0.00 | 0.00 | 0.00 | 83 | 1014.6 |
| 20260509005829 | 80 | 119 | 2.0 | 5.0 | 0.00 | 0.00 | 0.00 | 83 | 1014.5 |
| 20260509005343 | 80 | 139 | 1.0 | 4.0 | 0.00 | 0.00 | 0.00 | 83 | 1014.4 |
| 20260509004852 | 80 | 108 | 2.0 | 4.0 | 0.00 | 0.00 | 0.00 | 82 | 1014.2 |
| 20260509004324 | 80 | 106 | 1.0 | 3.0 | 0.00 | 0.00 | 0.00 | 82 | 1014.2 |
| 20260509003826 | 81 | 114 | 1.0 | 5.0 | 0.00 | 0.00 | 0.00 | 82 | 1014.1 |
| 20260509003349 | 81 | 119 | 2.0 | 5.0 | 0.00 | 0.00 | 0.00 | 82 | 1014.1 |
| 20260509002843 | 81 | 144 | 2.0 | 4.0 | 0.00 | 0.00 | 0.00 | 81 | 1014.0 |
| 20260509002328 | 81 | 103 | 2.0 | 4.0 | 0.00 | 0.00 | 0.00 | 81 | 1013.9 |
| 20260509001828 | 81 | 124 | 2.0 | 7.0 | 0.00 | 0.00 | 0.00 | 81 | 1013.7 |
| 20260509001342 | 81 | 116 | 2.0 | 7.0 | 0.00 | 0.00 | 0.00 | 81 | 1013.6 |
| 20260509000842 | 81 | 110 | 3.0 | 7.0 | 0.00 | 0.00 | 0.00 | 81 | 1013.5 |
| 20260509000348 | 81 | 129 | 3.0 | 7.0 | 0.00 | 0.00 | 0.00 | 81 | 1013.5 |
| 20260508235833 | 81 | 135 | 3.0 | 6.0 | 0.00 | 0.00 | 0.00 | 80 | 1013.7 |
| 20260508235325 | 81 | 134 | 3.0 | 6.0 | 0.00 | 0.00 | 0.00 | 80 | 1013.5 |
| 20260508234837 | 82 | 71 | 2.0 | 5.0 | 0.00 | 0.00 | 0.00 | 80 | 1013.4 |
| 20260508234351 | 82 | 75 | 3.0 | 6.0 | 0.00 | 0.00 | 0.00 | 79 | 1013.5 |
| 20260508233841 | 82 | 103 | 2.0 | 7.0 | 0.00 | 0.00 | 0.00 | 79 | 1013.5 |
| 20260508233330 | 82 | 71 | 4.0 | 7.0 | 0.00 | 0.00 | 0.00 | 79 | 1013.5 |
| 20260508232822 | 82 | 119 | 3.0 | 6.0 | 0.00 | 0.00 | 0.00 | 78 | 1013.5 |
| 20260508232344 | 82 | 112 | 3.0 | 6.0 | 0.00 | 0.00 | 0.00 | 78 | 1013.5 |
| 20260508231827 | 83 | 115 | 4.0 | 7.0 | 0.00 | 0.00 | 0.00 | 78 | 1013.4 |
| 20260508231322 | 83 | 141 | 4.0 | 7.0 | 0.00 | 0.00 | 0.00 | 78 | 1013.4 |
| 20260508230830 | 83 | 146 | 2.0 | 6.0 | 0.00 | 0.00 | 0.00 | 78 | 1013.5 |
| 20260508230354 | 83 | 85 | 2.0 | 8.0 | 0.00 | 0.00 | 0.00 | 78 | 1013.5 |
| 20260508225843 | 83 | 109 | 5.0 | 8.0 | 0.00 | 0.00 | 0.00 | 77 | 1013.3 |
| 20260508225345 | 84 | 155 | 3.0 | 5.0 | 0.00 | 0.00 | 0.00 | 77 | 1013.3 |
| 20260508224839 | 84 | 105 | 3.0 | 9.0 | 0.00 | 0.00 | 0.00 | 77 | 1013.3 |
| 20260508224329 | 84 | 70 | 4.0 | 9.0 | 0.00 | 0.00 | 0.00 | 76 | 1013.3 |
| 20260508223822 | 84 | 120 | 5.0 | 9.0 | 0.00 | 0.00 | 0.00 | 76 | 1013.2 |
| 20260508223346 | 84 | 150 | 4.0 | 10.0 | 0.00 | 0.00 | 0.00 | 76 | 1013.1 |
| 20260508222839 | 84 | 122 | 4.0 | 10.0 | 0.00 | 0.00 | 0.00 | 75 | 1013.2 |
| 20260508222353 | 85 | 129 | 6.0 | 9.0 | 0.00 | 0.00 | 0.00 | 76 | 1013.1 |
| 20260508221852 | 85 | 131 | 4.0 | 9.0 | 0.00 | 0.00 | 0.00 | 75 | 1013.1 |
| 20260508221326 | 85 | 143 | 4.0 | 9.0 | 0.00 | 0.00 | 0.00 | 75 | 1013.1 |
| 20260508220848 | 85 | 57 | 4.0 | 9.0 | 0.00 | 0.00 | 0.00 | 74 | 1013.1 |
| 20260508220319 | 85 | 72 | 5.0 | 10.0 | 0.00 | 0.00 | 0.00 | 73 | 1013.1 |
| 20260508215841 | 86 | 132 | 4.0 | 10.0 | 0.00 | 0.00 | 0.00 | 72 | 1013.2 |
| 20260508215330 | 86 | 88 | 4.0 | 8.0 | 0.00 | 0.00 | 0.00 | 71 | 1013.2 |
| 20260508214846 | 85 | 103 | 4.0 | 8.0 | 0.00 | 0.00 | 0.00 | 72 | 1013.2 |
| 20260508214320 | 85 | 96 | 4.0 | 8.0 | 0.00 | 0.00 | 0.00 | 71 | 1013.2 |
| 20260508213820 | 85 | 107 | 4.0 | 8.0 | 0.00 | 0.00 | 0.00 | 69 | 1013.3 |
| 20260508213334 | 86 | 82 | 4.0 | 9.0 | 0.00 | 0.00 | 0.00 | 70 | 1013.3 |
| 20260508212820 | 86 | 89 | 4.0 | 9.0 | 0.00 | 0.00 | 0.00 | 68 | 1013.3 |
| 20260508212331 | 86 | 65 | 5.0 | 10.0 | 0.00 | 0.00 | 0.00 | 69 | 1013.3 |
| 20260508211824 | 86 | 57 | 4.0 | 10.0 | 0.00 | 0.00 | 0.00 | 67 | 1013.3 |
| 20260508211336 | 86 | 100 | 4.0 | 8.0 | 0.00 | 0.00 | 0.00 | 67 | 1013.3 |
| 20260508210830 | 86 | 71 | 4.0 | 9.0 | 0.00 | 0.00 | 0.00 | 66 | 1013.3 |
| 20260508210324 | 86 | 76 | 4.0 | 9.0 | 0.00 | 0.00 | 0.00 | 67 | 1013.5 |
| 20260508205833 | 87 | 51 | 4.0 | 11.0 | 0.00 | 0.00 | 0.00 | 66 | 1013.4 |
| 20260508205327 | 87 | 136 | 3.0 | 11.0 | 0.00 | 0.00 | 0.00 | 64 | 1013.3 |
| 20260508204841 | 87 | 93 | 3.0 | 10.0 | 0.00 | 0.00 | 0.00 | 66 | 1013.3 |
| 20260508204354 | 87 | 70 | 5.0 | 10.0 | 0.00 | 0.00 | 0.00 | 65 | 1013.4 |
| 20260508203825 | 86 | 134 | 6.0 | 11.0 | 0.00 | 0.00 | 0.00 | 63 | 1013.4 |
| 20260508203332 | 87 | 117 | 6.0 | 11.0 | 0.00 | 0.00 | 0.00 | 66 | 1013.5 |
| 20260508202825 | 87 | 189 | 6.0 | 10.0 | 0.00 | 0.00 | 0.00 | 67 | 1013.4 |
| 20260508202346 | 87 | 109 | 4.0 | 10.0 | 0.00 | 0.00 | 0.00 | 67 | 1013.7 |
| 20260508201830 | 88 | 140 | 6.0 | 10.0 | 0.00 | 0.00 | 0.00 | 67 | 1013.7 |
| 20260508201324 | 88 | 127 | 4.0 | 8.0 | 0.00 | 0.00 | 0.00 | 70 | 1013.7 |
| 20260508200834 | 88 | 28 | 4.0 | 8.0 | 0.00 | 0.00 | 0.00 | 67 | 1013.8 |
| 20260508200345 | 88 | 72 | 4.0 | 9.0 | 0.00 | 0.00 | 0.00 | 68 | 1013.9 |
| 20260508195837 | 88 | 139 | 3.0 | 10.0 | 0.00 | 0.00 | 0.00 | 69 | 1013.9 |
| 20260508195402 | 87 | 131 | 3.0 | 13.0 | 0.00 | 0.00 | 0.00 | 69 | 1014.0 |
| 20260508194825 | 87 | 126 | 4.0 | 13.0 | 0.00 | 0.00 | 0.00 | 69 | 1014.1 |
| 20260508194334 | 88 | 145 | 4.0 | 8.0 | 0.00 | 0.00 | 0.00 | 70 | 1014.2 |
| 20260508193828 | 87 | 102 | 3.0 | 10.0 | 0.00 | 0.00 | 0.00 | 70 | 1014.2 |
| 20260508193320 | 87 | 85 | 5.0 | 11.0 | 0.00 | 0.00 | 0.00 | 69 | 1014.3 |
| 20260508192835 | 87 | 30 | 6.0 | 11.0 | 0.00 | 0.00 | 0.00 | 71 | 1014.3 |
| 20260508192330 | 88 | 234 | 5.0 | 8.0 | 0.00 | 0.00 | 0.00 | 69 | 1014.3 |
| 20260508191829 | 88 | 130 | 3.0 | 11.0 | 0.00 | 0.00 | 0.00 | 70 | 1014.3 |
| 20260508191321 | 88 | 134 | 5.0 | 12.0 | 0.00 | 0.00 | 0.00 | 70 | 1014.4 |
| 20260508190835 | 88 | 67 | 4.0 | 12.0 | 0.00 | 0.00 | 0.00 | 70 | 1014.5 |
| 20260508190328 | 88 | 120 | 5.0 | 12.0 | 0.00 | 0.00 | 0.00 | 71 | 1014.6 |
| 20260508185843 | 88 | 105 | 6.0 | 12.0 | 0.00 | 0.00 | 0.00 | 71 | 1014.5 |
| 20260508185328 | 87 | 120 | 4.0 | 11.0 | 0.00 | 0.00 | 0.00 | 71 | 1014.7 |
| 20260508184835 | 87 | 354 | 4.0 | 11.0 | 0.00 | 0.00 | 0.00 | 72 | 1014.8 |
| 20260508184346 | 87 | 27 | 3.0 | 10.0 | 0.00 | 0.00 | 0.00 | 72 | 1014.8 |
| 20260508183819 | 88 | 13 | 5.0 | 10.0 | 0.00 | 0.00 | 0.00 | 72 | 1014.8 |
| 20260508183340 | 88 | 54 | 5.0 | 8.0 | 0.00 | 0.00 | 0.00 | 71 | 1014.8 |
| 20260508182834 | 88 | 71 | 5.0 | 10.0 | 0.00 | 0.00 | 0.00 | 72 | 1014.9 |
| 20260508182324 | 87 | 18 | 5.0 | 10.0 | 0.00 | 0.00 | 0.00 | 72 | 1015.0 |
| 20260508181828 | 88 | 163 | 5.0 | 9.0 | 0.00 | 0.00 | 0.00 | 71 | 1015.0 |
| 20260508181342 | 88 | 102 | 3.0 | 7.0 | 0.00 | 0.00 | 0.00 | 70 | 1015.0 |